Location: Catstown
(52.4386°N, 7.2633°W)
Time: 23:29:11
(UTC+00:00)

Cosmos 1833 Rocket - Pass Details

Date: 18 September 2020
Orbit: 831 x 841 km, 71.0° (Epoch: 30 October)

Event Time Altitude Azimuth Distance (km) Brightness Sun altitude
Rises 21:41:03 0° 328° (NNW) 3,408 7.1 -26.4°
Reaches altitude 10° 21:43:30 10° 329° (NNW) 2,470 6.1 -26.6°
Maximum altitude 21:49:11 89° 242° (WSW) 849 2.6 -27.2°
Enters shadow 21:49:20 86° 161° (SSE) 851 2.5 -27.3°
